Location: Caltech
(34.1382°N, 118.1253°W)
Time: 10:28:57
(UTC-07:00)

Lacrosse 5 - Visible Passes

Search period start: 05 July 2015 00:00
Search period end: 15 July 2015 00:00
Orbit: 713 x 724 km, 57.0° (Epoch: 30 June)

Date Brightness Start Highest point End Pass type
(mag) Time Alt. Az. Time Alt. Az. Time Alt. Az.
05 Jul 3.7 01:14:16 25° NE 01:14:16 25° NE 01:16:26 10° NE visible
05 Jul 3.7 02:53:25 19° WNW 02:54:47 21° NW 02:58:33 10° NNE visible
06 Jul 4.5 00:22:27 11° ENE 00:22:27 11° ENE 00:22:36 10° ENE visible
06 Jul 3.2 02:01:37 35° NNW 02:01:37 35° NNW 02:05:42 10° NNE visible
07 Jul 3.3 01:09:43 33° NNE 01:09:43 33° NNE 01:12:35 10° NE visible
07 Jul 4.4 02:48:58 10° WNW 02:51:25 13° NNW 02:53:43 10° N visible
08 Jul 4.0 00:17:46 19° NE 00:17:46 19° NE 00:19:10 10° NE visible
08 Jul 3.8 01:56:55 21° NW 01:57:31 21° NW 02:01:19 10° NNE visible
09 Jul 3.4 01:04:52 33° NNW 01:04:52 33° NNW 01:08:28 10° NNE visible
10 Jul 3.4 00:12:43 31° NNE 00:12:43 31° NNE 00:15:20 10° NE visible
10 Jul 4.5 01:51:50 11° WNW 01:54:09 13° NNW 01:56:31 10° N visible
10 Jul 3.8 23:20:24 19° NE 23:20:24 19° NE 23:21:55 10° NE visible
11 Jul 3.9 00:59:31 21° NW 01:00:15 22° NW 01:04:06 10° NNE visible
11 Jul 4.2 22:27:52 11° ENE 22:27:52 11° ENE 22:28:03 10° ENE visible
12 Jul 3.2 00:06:58 37° NNW 00:06:58 37° NNW 00:11:14 10° NNE visible
12 Jul 2.3 23:14:00 55° N 23:14:00 55° N 23:18:05 10° NE visible
13 Jul 4.6 00:54:15 10° WNW 00:56:52 14° NNW 00:59:19 10° N visible
13 Jul 1.9 22:20:11 55° E 22:20:11 55° E 22:24:39 10° NE visible
13 Jul 4.1 23:59:07 10° W 00:02:59 22° NW 00:06:52 10° NNE visible
14 Jul 4.8 05:15:53 10° N 05:18:43 15° NNE 05:21:42 10° ENE visible
14 Jul 2.7 21:22:16 10° S 21:26:28 28° ESE 21:30:45 10° ENE visible
14 Jul 3.2 23:04:35 10° WSW 23:09:17 38° NW 23:13:59 10° NNE visible
